STARLINK-2701, 48656

Orbit data source: Space-Track

STARLINK-2701, 48656 is a payload satellite owned by SpaceX/Seattle (US) in LEO that was launched on Wed, 26 May 2021 UTC via an FALCON 9 launch vehicle from the Air Force Eastern Test Range (AFETR). Payload-class satellites include a variety of spacecraft equipped with specific instruments for various scientific and technological missions. These include communications satellites like Starlink; space stations such as the ISS; scientific satellites like the Hubble; Earth observation satellites from companies like Planet Labs, Umbra, and HawkEye 360; GPS; miniature CubeSats for education and research; and military/defense satellites.

Loading next visibility...
Identifier
48656, 2021-044U
Orbit
LEO
Country
Flag of USUS
Related business
Manufacturer
SpaceX/Seattle
Mission
Operational Commercial Communications
Bus & Motor
STARLINK, Unknown motor
Mass
260 kg wet, ~248 kg dry
Launch date (UTC)
2021-05-26 (5 years ago)
Launch vehicle
FALCON 9
Launch site
Air Force Eastern Test Range (AFETR)
Object type
Payload
Rocket body
Debris
Shape & HBR
Box + 1 Pan, 10.1 m
Radar Cross Section
13.562 m², Large (>1 m²)

Expand to show TLE details & history
Last TLE update: 23 hours ago

TLE from 23 hours ago
0 STARLINK-2701
1 48656U 21044U   25348.81086367  .00001659  00000-0  13026-3 0  9997
2 48656  53.0537 142.6522 0001402  84.9300 275.1849 15.06386126250918
Epoch: 2025-12-14T19:27Z
TLE epoch observation values (Epoch: 2025-12-14T19:27:38.621Z)
Latitude
Longitude
127.02285°
Altitude
548.046 km
Speed
7.589 km/s
True Right ascension
09h 30m 36s
True Declination
0° 00' 00"
Sunlit
Object was in full shadow at epoch
Visualization orbit readout
Latitude
Unknown
Longitude
Unknown
Altitude
Unknown
Speed
Unknown
Apparent Right ascension
Unknown
Apparent Declination
Unknown
Sunlit
N/A
Visualization observer readout
Local Sidereal Time
17:05:15
Azimuth
Unknown
Elevation
Unknown
Doppler factor
Unknown
Orbital elements
Apogee altitude
548.496 km
Perigee altitude
546.554 km
Semi-major axis
6,925.662 km
Eccentricity
0.00014
Inclination
53.0537°
RAAN
142.6522°
Arg. of periapsis
84.93°
True anomaly
275.1689°
Mean anomaly
275.1849°
Eccentric anomaly
275.1769°
Mean motion
3.76575 °/min
Orbital period
95.6 mins
BSTAR
0.00013026
Loading maneuver chart data...
Computing Atmospheric mass density...
Loading historical data...
Loading historical data...
Loading historical data...
Loading historical data...
Loading historical data...
Loading historical data...
Loading historical data...

Documentation

Showing up to 5 results
|